Location: Marstown
(39.5056°N, 77.0820°W)
Time: 04:44:00
(UTC-04:00)

BlueWalker 3 - Visible Passes

Search period start: 08 May 2026 00:00
Search period end: 18 May 2026 00:00
Orbit: 448 x 458 km, 53.2° (Epoch: 7 May)

Date Brightness Start Highest point End Pass type
(mag) Time Alt. Az. Time Alt. Az. Time Alt. Az.
8 May 4.1 02:58:32 21° ENE 02:58:32 21° ENE 02:59:54 10° ENE visible
8 May 3.6 04:32:10 15° WNW 04:34:02 22° NNW 04:36:54 10° NNE visible
9 May 4.9 02:22:58 10° ENE 02:22:58 10° ENE 02:23:02 10° ENE visible
9 May 3.2 03:56:36 26° NW 03:57:11 27° NNW 04:00:17 10° NNE visible
10 May 3.2 03:20:58 32° N 03:20:58 32° N 03:23:39 10° NE visible
10 May 4.5 04:57:30 10° NNW 04:58:38 11° NNW 04:59:45 10° N visible
11 May 4.0 02:45:18 24° NNE 02:45:18 24° NNE 02:46:59 10° NE visible
11 May 4.4 04:20:05 10° NW 04:21:41 12° NNW 04:23:17 10° N visible
12 May 4.7 02:09:34 15° NE 02:09:34 15° NE 02:10:16 10° NE visible
12 May 4.3 03:43:11 11° NW 03:44:45 14° NNW 03:46:45 10° NNE visible
13 May 4.2 03:07:25 16° NNW 03:07:49 16° NNW 03:10:10 10° NNE visible
14 May 4.3 02:31:35 18° N 02:31:35 18° N 02:33:33 10° NNE visible
15 May 4.6 01:55:42 17° NNE 01:55:42 17° NNE 01:56:54 10° NNE visible
15 May 4.8 05:10:04 10° N 05:11:14 11° NNE 05:12:23 10° NNE visible
16 May 4.9 01:19:42 13° NNE 01:19:42 13° NNE 01:20:14 10° NNE visible
16 May 4.9 02:54:47 10° NNW 02:55:26 10° N 02:56:05 10° N visible
16 May 5.1 04:33:43 10° N 04:34:14 10° N 04:34:44 10° NNE visible
17 May 4.8 02:17:14 10° NW 02:18:26 11° NNW 02:19:41 10° N visible
